Weather in Hermanus

South Africa     34°25′16″S   19°14′24″E
temp.,
°C
wind,
m/s
gust,
m/s
humid.,
%
clouds,
%
prec.,
mm/h
press.,
hPa
HPBL,
m
3 march, wed
wed323:00+19nw33850 0.0 101460
02:00+19wnw33850 0.0 101481
05:00+19nw34850 0.0 1013132
08:00+19nw35830 0.0 1014231
11:00+20wsw55780 0.0 1014277
14:00+20wsw69830 0.0 1013376
17:00+20w68870 0.0 1012395
20:00+20s689225 0.1 1014377
4 march, thu
thu423:00+19sse5690100 0.5 1015395
02:00+19sse459097 0.7 1014367
05:00+18sse458899 0.5 1013417
08:00+18sse578599 1.3 1013558
11:00+18sse5683100 0.6 1015626
14:00+18sse5674100 0.8 1014708
17:00+18sse557190 0.0 1014828
20:00+18ese567191 0.0 1015695
5 march, fri
fri523:00+18ese577339 0.0 1016543
02:00+18ese577368 0.0 1014536
05:00+17e687817 0.0 1014463
08:00+18e69778 0.0 1015679
11:00+21e56699 0.0 1015252
14:00+22se89666 0.0 1013317
17:00+22se1013700 0.0 1012327
20:00+20e69760 0.0 1013265
6 march, sat
sat623:00+19ene58780 0.0 1013276
02:00+19ene46790 0.0 1012206
05:00+18ne34830 0.0 1011125
08:00+19w11830 0.0 101241
11:00+20w68760 0.0 1013227
14:00+20w1114840 0.0 1013471
17:00+20wsw710860 0.0 1013468
20:00+19w588515 0.1 1015394
7 march, sun
sun723:00+19w57850 0.0 1017401
02:00+18nw46850 0.0 1016359
05:00+18nnw348233 0.0 1016216
08:00+18nnw457917 0.0 1016217
11:00+20w57741 0.0 1015282
14:00+20w912780 0.0 1014381
17:00+19ssw798886 0.3 1014604
20:00+18sw677993 0.9 1016864